Date_and_time,latitude,longitude,wind_speed,RelWindDirFrom,WindDirFrom,air_pressure,air_temperature,relative_humidity,Temp,platform_speed_wrt_ground,air_pressure_at_mean_sea_level,platform_orientation
2018-09-07 23:30,50.6304216666667,-96.98077,12.7,14.7,37,1000.05,17.8,51,17.21,0.0,1026.54,113.6
2018-09-07 23:40,50.630425,-96.9807783333333,13.0,15.0,35,1000.00,17.8,52,17.20,0.0,1026.49,113.6
2018-09-07 23:50,50.6304216666667,-96.9807783333333,12.7,14.5,35,999.97,17.8,53,17.22,0.0,1026.45,113.6
2018-09-08 00:00,50.6304266666667,-96.980775,12.2,13.7,36,999.92,17.9,54,17.26,0.0,1026.39,176.8
2018-09-08 00:10,50.6304666666667,-96.9807666666667,11.6,13.3,40,999.85,18.0,54,17.26,0.0,1026.31,176.8
2018-09-08 00:20,50.6304383333333,-96.98078,11.0,12.6,45,999.76,18.1,56,17.26,0.0,1026.21,176.8
2018-09-08 00:30,50.6304383333333,-96.980775,10.3,12.3,48,999.75,18.2,57,17.26,0.0,1026.19,176.8
2018-09-08 00:40,50.63044,-96.9807716666667,11.0,13.3,53,999.62,18.2,56,17.26,0.0,1026.06,176.8
2018-09-08 00:50,50.6304383333333,-96.9807733333333,11.4,13.2,59,999.51,18.3,55,17.25,0.0,1025.94,176.8
2018-09-08 01:00,50.6304383333333,-96.9807733333333,10.9,12.4,58,999.56,18.2,57,17.25,0.0,1025.99,360.0
2018-09-08 01:10,50.6304383333333,-96.9807716666667,11.2,12.8,60,999.58,18.2,57,17.25,0.0,1026.01,360.0
2018-09-08 01:20,50.6304383333333,-96.9807716666667,11.1,12.4,64,999.57,18.2,58,17.25,0.0,1026.00,360.0
2018-09-08 01:30,50.6304383333333,-96.9807616666667,12.1,14.7,66,999.56,18.2,54,17.24,0.0,1025.98,360.0
2018-09-08 01:40,50.6304433333333,-96.9807666666667,13.4,15.1,67,999.52,18.2,53,17.22,0.0,1025.95,360.0
2018-09-08 01:50,50.6304433333333,-96.9807666666667,13.2,14.9,69,999.61,18.1,53,17.22,0.0,1026.04,360.0
2018-09-08 02:00,50.6304066666667,-96.9807883333333,13.9,15.9,71,999.61,18.1,52,17.22,0.0,1026.04,207.4
2018-09-08 02:10,50.6304416666667,-96.98078,14.4,16.6,71,999.61,18.0,53,17.21,0.0,1026.03,207.4
2018-09-08 02:20,50.630445,-96.9807733333333,15.4,17.1,70,999.53,17.9,52,17.19,0.0,1025.96,207.4
2018-09-08 02:30,50.63044,-96.98077,15.3,17.4,71,999.49,17.8,52,17.17,0.0,1025.92,207.4
2018-09-08 02:40,50.63044,-96.9807716666667,15.6,19.3,73,999.42,17.6,53,17.15,0.0,1025.86,207.4
2018-09-08 02:50,50.6304383333333,-96.9807716666667,15.8,18.8,78,999.32,17.5,52,17.14,0.0,1025.76,207.4
2018-09-08 03:00,50.63044,-96.98077,15.2,19.3,80,999.29,17.4,53,17.12,0.0,1025.73,360.0
2018-09-08 03:10,50.63044,-96.9807716666667,14.3,18.2,82,999.32,17.4,53,17.11,0.0,1025.77,360.0
2018-09-08 03:20,50.63044,-96.9807716666667,14.5,17.7,83,999.24,17.3,53,17.10,0.0,1025.69,360.0
2018-09-08 03:30,50.6304383333333,-96.9807716666667,13.2,16.4,87,999.23,17.1,54,17.10,0.0,1025.68,360.0
2018-09-08 03:40,50.6304366666667,-96.9807716666667,13.2,16.4,89,999.17,17.0,55,17.09,0.0,1025.63,360.0
2018-09-08 03:50,50.630435,-96.9807716666667,13.0,17.3,93,999.18,16.8,56,17.09,0.0,1025.65,360.0
2018-09-08 04:00,50.630435,-96.9807716666667,13.6,17.8,94,999.04,16.8,57,17.09,0.0,1025.51,360.0
2018-09-08 04:10,50.6304333333333,-96.9807716666667,14.6,18.6,95,998.91,16.8,57,17.11,0.0,1025.38,360.0
2018-09-08 04:20,50.6304333333333,-96.9807716666667,17.8,23.3,101,998.87,16.8,57,17.11,0.0,1025.35,360.0
2018-09-08 04:30,50.6304333333333,-96.9807716666667,19.0,22.2,103,998.82,16.6,57,17.10,0.0,1025.31,360.0
2018-09-08 04:40,50.6304333333333,-96.9807716666667,18.0,21.7,105,998.81,16.5,59,17.10,0.0,1025.31,360.0
2018-09-08 04:50,50.6304333333333,-96.9807716666667,18.5,23.2,108,998.78,16.4,61,17.09,0.0,1025.29,360.0
2018-09-08 05:00,50.6304333333333,-96.9807733333333,19.0,22.7,109,998.70,16.4,61,17.08,0.0,1025.21,8.4
2018-09-08 05:10,50.630435,-96.9807733333333,18.9,22.3,113,998.59,16.5,62,17.06,0.0,1025.10,8.4
2018-09-08 05:20,50.630435,-96.9807733333333,19.9,23.6,115,998.54,16.4,61,17.04,0.0,1025.06,8.4
2018-09-08 05:30,50.630435,-96.9807733333333,19.5,23.5,116,998.50,16.4,61,17.02,0.0,1025.02,8.4
2018-09-08 05:40,50.630435,-96.9807733333333,19.6,23.3,115,998.45,16.3,61,17.00,0.0,1024.98,8.4
2018-09-08 05:50,50.6304366666667,-96.9807733333333,17.9,21.9,114,998.47,16.3,64,16.98,0.0,1025.00,8.4
2018-09-08 06:00,50.630445,-96.9807716666667,19.4,23.9,114,998.37,16.3,62,16.97,0.0,1024.90,270.0
2018-09-08 06:10,50.6304483333333,-96.9807783333333,19.9,23.7,116,998.25,16.2,62,16.95,0.0,1024.79,270.0
2018-09-08 06:20,50.6304416666667,-96.9807783333333,19.2,23.2,115,998.21,16.1,62,16.94,0.0,1024.75,270.0
2018-09-08 06:30,50.63044,-96.9807766666667,18.4,21.8,116,998.23,16.1,63,16.94,0.0,1024.78,270.0
2018-09-08 06:40,50.6304366666667,-96.9807716666667,17.6,20.4,119,998.16,16.0,65,16.93,0.0,1024.71,270.0
2018-09-08 06:50,50.630435,-96.98077,17.5,21.4,123,998.16,16.0,63,16.92,0.0,1024.72,270.0
2018-09-08 07:00,50.63042,-96.9807966666667,16.1,19.1,129,998.17,16.1,64,16.91,0.0,1024.73,228.4
2018-09-08 07:10,50.6304333333333,-96.9807816666667,16.0,20.3,132,998.02,15.9,64,16.91,0.0,1024.58,228.4
2018-09-08 07:20,50.6304366666667,-96.9807733333333,15.7,20.2,131,997.83,16.0,66,16.90,0.0,1024.38,228.4
2018-09-08 07:30,50.6304433333333,-96.980785,17.1,20.5,127,997.70,16.1,65,16.89,0.0,1024.25,228.4
2018-09-08 07:40,50.6304366666667,-96.98078,17.2,21.9,128,997.64,16.1,66,16.88,0.0,1024.19,228.4
2018-09-08 07:50,50.630435,-96.9807783333333,16.7,20.3,127,997.55,16.0,66,16.87,0.0,1024.10,228.4
2018-09-08 08:00,50.6304383333333,-96.980765,16.7,19.8,126,997.51,15.9,66,16.87,0.0,1024.07,14.5
2018-09-08 08:10,50.630435,-96.9807716666667,16.6,19.9,127,997.37,15.8,66,16.86,0.0,1023.93,14.5
2018-09-08 08:20,50.630435,-96.9807766666667,16.7,20.4,126,997.16,15.8,67,16.85,0.0,1023.71,14.5
2018-09-08 08:30,50.6304383333333,-96.9807816666667,16.0,20.4,132,997.04,15.6,67,16.84,0.0,1023.60,14.5
2018-09-08 08:40,50.6304416666667,-96.9807783333333,16.5,21.2,132,996.79,15.6,67,16.83,0.0,1023.35,14.5
2018-09-08 08:50,50.6304416666667,-96.9807766666667,16.6,20.9,134,996.54,15.5,67,16.81,0.0,1023.10,14.5
2018-09-08 09:00,50.63044,-96.9807866666667,16.6,22.3,135,996.30,15.3,67,16.80,0.0,1022.86,270.0
2018-09-08 09:10,50.6304383333333,-96.98078,16.0,20.8,137,996.13,15.1,68,16.79,0.0,1022.70,270.0
2018-09-08 09:20,50.63044,-96.9807766666667,14.6,19.4,137,996.15,15.1,68,16.78,0.0,1022.71,270.0
2018-09-08 09:30,50.6304433333333,-96.9807733333333,15.3,20.3,138,995.94,15.0,69,16.78,0.0,1022.50,270.0
2018-09-08 09:40,50.6304416666667,-96.9807716666667,15.6,20.6,136,995.80,15.1,70,16.76,0.0,1022.36,270.0
2018-09-08 09:50,50.6304416666667,-96.9807716666667,16.1,19.2,141,995.68,15.0,70,16.76,0.0,1022.24,270.0
2018-09-08 10:00,50.6304416666667,-96.98077,16.8,21.3,138,995.50,15.1,70,16.75,0.0,1022.06,48.1
2018-09-08 10:10,50.63044,-96.9807716666667,16.8,22.7,139,995.35,15.1,70,16.75,0.0,1021.90,48.1
2018-09-08 10:20,50.63044,-96.9807716666667,16.0,21.1,138,995.21,15.2,71,16.74,0.0,1021.76,48.1
2018-09-08 10:30,50.63044,-96.9807716666667,15.3,21.3,135,995.06,15.3,71,16.73,0.0,1021.61,48.1
2018-09-08 10:40,50.63044,-96.9807733333333,16.1,20.9,136,994.97,15.3,71,16.72,0.0,1021.52,48.1
2018-09-08 10:50,50.6304416666667,-96.9807733333333,16.1,21.2,138,994.98,15.1,71,16.71,0.0,1021.55,48.1
2018-09-08 11:00,50.63044,-96.9807733333333,16.0,21.2,139,994.94,15.2,72,16.69,0.0,1021.51,270.0
2018-09-08 11:10,50.63044,-96.980775,17.3,22.3,143,994.84,15.1,71,16.68,0.0,1021.41,270.0
2018-09-08 11:20,50.63044,-96.980775,17.7,22.5,144,994.70,15.0,72,16.68,0.0,1021.27,270.0
2018-09-08 11:30,50.63044,-96.9807733333333,18.9,21.9,143,994.58,15.0,72,16.68,0.0,1021.15,270.0
2018-09-08 11:40,50.63044,-96.9807733333333,18.8,22.5,145,994.62,15.0,73,16.67,0.0,1021.20,270.0
2018-09-08 11:50,50.63044,-96.9807733333333,17.9,22.1,144,994.60,15.0,74,16.66,0.0,1021.17,270.0
2018-09-08 12:00,50.63044,-96.9807716666667,18.1,22.6,144,994.61,15.0,74,16.65,0.0,1021.19,90.0
2018-09-08 12:10,50.63044,-96.9807733333333,16.3,20.8,140,994.63,15.0,75,16.64,0.0,1021.20,90.0
2018-09-08 12:20,50.63044,-96.9807716666667,15.2,19.5,135,994.50,15.4,76,16.63,0.0,1021.04,90.0
2018-09-08 12:30,50.63044,-96.9807716666667,15.4,19.4,138,994.25,15.3,76,16.62,0.0,1020.80,90.0
2018-09-08 12:40,50.63044,-96.9807716666667,15.8,21.2,135,994.04,15.6,75,16.62,0.0,1020.56,90.0
2018-09-08 12:50,50.63044,-96.9807716666667,14.0,19.1,133,994.01,15.9,76,16.61,0.0,1020.52,90.0
2018-09-08 13:00,50.63044,-96.98077,14.8,18.7,137,993.93,15.8,75,16.61,0.0,1020.45,90.0
2018-09-08 13:10,50.63044,-96.9807716666667,15.6,20.3,134,993.76,16.0,74,16.60,0.0,1020.26,90.0
2018-09-08 13:20,50.63044,-96.9807716666667,15.6,20.7,137,993.77,15.9,74,16.59,0.0,1020.28,90.0
2018-09-08 13:30,50.6304416666667,-96.9807716666667,16.3,21.2,138,993.67,16.0,74,16.58,0.0,1020.18,90.0
2018-09-08 13:40,50.6304416666667,-96.9807716666667,17.5,21.1,146,993.66,15.8,73,16.57,0.0,1020.17,90.0
2018-09-08 13:50,50.6304416666667,-96.9807716666667,16.5,21.7,153,993.89,15.7,74,16.57,0.0,1020.41,90.0
2018-09-08 14:00,50.6304166666667,-96.9807483333333,12.4,16.1,161,994.12,15.6,75,16.57,0.0,1020.66,171.6
2018-09-08 14:10,50.6304316666667,-96.9807583333333,10.3,14.2,179,994.49,15.5,75,16.57,0.0,1021.02,171.6
2018-09-08 14:20,50.6304316666667,-96.9807633333333,7.8,11.5,199,995.06,15.5,73,16.57,0.0,1021.61,171.6
2018-09-08 14:30,50.6304333333333,-96.9807666666667,7.6,10.7,181,994.97,15.6,71,16.57,0.0,1021.50,171.6
2018-09-08 14:40,50.630435,-96.9807683333333,6.5,8.8,178,994.84,15.4,73,16.57,0.0,1021.36,171.6
2018-09-08 14:50,50.6304366666667,-96.9807683333333,6.2,9.0,171,994.80,15.2,74,16.60,0.0,1021.33,171.6
2018-09-08 15:00,50.6304366666667,-96.9807666666667,10.3,15.3,144,994.48,15.3,75,16.62,0.0,1020.99,167.4
2018-09-08 15:10,50.630435,-96.9807666666667,13.6,16.9,137,994.12,15.0,85,16.59,0.0,1020.64,167.4
2018-09-08 15:20,50.6304483333333,-96.98077,13.1,15.2,126,994.04,15.2,89,16.58,0.0,1020.55,167.4
2018-09-08 15:30,50.63044,-96.9807766666667,13.8,18.0,131,993.75,15.4,88,16.58,0.0,1020.25,167.4
2018-09-08 15:40,50.63044,-96.9807716666667,14.7,18.3,135,993.60,15.8,80,16.57,0.0,1020.08,167.4
2018-09-08 15:50,50.6304383333333,-96.98077,15.5,20.1,141,993.46,15.7,79,16.56,0.0,1019.95,167.4
2018-09-08 16:00,50.6304383333333,-96.9807683333333,16.5,20.4,141,993.34,15.7,78,16.54,0.0,1019.82,0.0
2018-09-08 16:10,50.6304366666667,-96.9807683333333,19.1,22.4,147,993.14,15.5,80,16.54,0.0,1019.63,0.0
2018-09-08 16:20,50.630435,-96.98078,17.8,21.7,142,993.10,15.6,80,16.53,0.0,1019.58,0.0
2018-09-08 16:30,50.6304366666667,-96.98078,19.1,23.8,147,992.92,15.6,79,16.51,0.0,1019.41,0.0
2018-09-08 16:40,50.63044,-96.9807783333333,20.9,26.4,148,992.60,15.5,81,16.51,0.0,1019.09,0.0
2018-09-08 16:50,50.6304433333333,-96.98078,21.4,26.6,151,992.38,15.6,81,16.51,0.0,1018.86,0.0
2018-09-08 17:00,50.6304416666667,-96.98078,20.7,25.6,145,992.33,15.5,83,16.50,0.0,1018.82,320.5
2018-09-08 17:10,50.6304416666667,-96.9807816666667,22.1,27.3,147,992.07,15.5,84,16.50,0.0,1018.55,320.5
2018-09-08 17:20,50.6304416666667,-96.98078,24.8,30.0,146,991.67,15.5,83,16.49,0.0,1018.12,320.5
2018-09-08 17:30,50.6304416666667,-96.98078,23.1,31.1,141,991.69,15.6,82,16.48,0.0,1018.12,320.5
2018-09-08 17:40,50.6304416666667,-96.98078,22.2,28.4,135,991.53,15.8,82,16.47,0.0,1017.95,320.5
2018-09-08 17:50,50.6304416666667,-96.98078,20.2,26.1,133,991.48,15.8,84,16.46,0.0,1017.90,320.5
2018-09-08 18:00,50.63044,-96.9807783333333,20.9,27.5,134,991.38,15.7,85,16.47,0.0,1017.81,293.6
2018-09-08 18:10,50.630445,-96.98078,20.4,26.2,140,991.36,15.5,85,16.46,0.0,1017.80,293.6
2018-09-08 18:20,50.6304433333333,-96.9807716666667,19.2,26.4,139,991.41,15.7,83,16.45,0.0,1017.84,293.6
2018-09-08 18:30,50.6304416666667,-96.98077,19.6,27.7,144,991.45,15.7,83,16.45,0.0,1017.89,293.6
2018-09-08 18:40,50.6304533333333,-96.9807566666667,20.9,26.2,149,991.41,15.5,83,16.44,0.0,1017.85,293.6
2018-09-08 18:50,50.63044,-96.9807883333333,20.0,24.4,145,991.35,15.4,86,16.43,0.0,1017.80,293.6
2018-09-08 19:00,50.63042,-96.9807783333333,16.3,19.9,143,991.35,15.4,88,16.42,0.0,1017.80,207.4
2018-09-08 19:10,50.6304316666667,-96.98077,17.0,20.2,151,991.33,15.5,87,16.42,0.0,1017.77,207.4
2018-09-08 19:20,50.63044,-96.9807666666667,15.1,20.2,162,991.21,15.8,85,16.42,0.0,1017.62,207.4
2018-09-08 19:30,50.63044,-96.980765,18.7,25.4,168,990.94,16.4,74,16.43,0.0,1017.31,207.4
2018-09-08 19:40,50.6304416666667,-96.980765,16.4,22.0,164,990.95,16.5,76,16.42,0.0,1017.33,207.4
2018-09-08 19:50,50.63045,-96.980765,15.7,20.8,165,991.02,16.5,78,16.41,0.0,1017.40,207.4
2018-09-08 20:00,50.6304433333333,-96.9807716666667,18.3,24.7,170,990.87,16.9,72,16.42,0.0,1017.23,90.0
2018-09-08 20:10,50.63044,-96.9807733333333,18.2,25.2,169,990.80,17.0,71,16.44,0.0,1017.15,90.0
2018-09-08 20:20,50.6304416666667,-96.9807666666667,17.8,22.7,165,990.79,17.1,69,16.45,0.0,1017.13,90.0
2018-09-08 20:30,50.6304366666667,-96.9807733333333,17.9,24.9,163,990.70,17.0,69,16.45,0.0,1017.05,90.0
2018-09-08 20:40,50.6304383333333,-96.9807716666667,16.7,22.5,158,990.70,16.9,71,16.45,0.0,1017.06,90.0
2018-09-08 20:50,50.630435,-96.9807783333333,16.7,22.2,158,990.75,16.8,72,16.46,0.0,1017.13,90.0
2018-09-08 21:00,50.6304416666667,-96.980765,17.4,23.6,156,990.59,16.7,72,16.46,0.0,1016.96,90.0
2018-09-08 21:10,50.630445,-96.9807666666667,17.5,21.9,154,990.40,16.6,72,16.46,0.0,1016.75,90.0
2018-09-08 21:20,50.6304433333333,-96.980765,17.7,22.5,156,990.26,16.6,72,16.46,0.0,1016.58,90.0
2018-09-08 21:30,50.6304433333333,-96.9807666666667,18.2,23.9,154,990.06,16.6,73,16.47,0.0,1016.38,90.0
2018-09-08 21:40,50.6304433333333,-96.98077,17.3,22.4,154,989.99,16.6,73,16.46,0.0,1016.30,90.0
2018-09-08 21:50,50.6304433333333,-96.9807716666667,18.0,21.9,151,989.74,16.6,73,16.46,0.0,1016.03,90.0
2018-09-08 22:00,50.6304466666667,-96.980795,18.0,22.4,149,989.46,16.7,72,16.46,0.0,1015.74,339.9
2018-09-08 22:10,50.630445,-96.9807783333333,16.7,20.7,146,989.27,16.8,72,16.43,0.0,1015.52,339.9
2018-09-08 22:20,50.630445,-96.9807766666667,15.5,19.9,144,989.16,17.0,72,16.46,0.0,1015.40,339.9
2018-09-08 22:30,50.630435,-96.980765,13.6,19.4,137,989.11,17.2,75,16.47,0.0,1015.34,339.9
2018-09-08 22:40,50.6304333333333,-96.980765,14.5,20.2,133,989.07,17.4,76,16.47,0.0,1015.31,339.9
2018-09-08 22:50,50.6304333333333,-96.9807683333333,14.0,17.6,131,989.07,17.5,77,16.48,0.0,1015.31,339.9
2018-09-08 23:00,50.6304316666667,-96.9807683333333,14.4,18.0,126,988.82,17.4,81,16.49,0.0,1015.06,138.7
2018-09-08 23:10,50.6304333333333,-96.9807716666667,15.7,20.2,123,988.58,17.4,83,16.50,0.0,1014.82,138.7
2018-09-08 23:20,50.6304183333333,-96.98076,16.0,19.7,124,988.29,17.4,85,16.50,0.0,1014.51,138.7
2018-09-08 23:30,50.6304316666667,-96.98077,16.1,20.3,125,988.18,17.4,87,16.50,0.0,1014.40,138.7
2018-09-08 23:40,50.630455,-96.980785,15.5,18.4,125,988.18,17.4,88,16.50,0.0,1014.40,138.7
